Weather History for KIKV - December, 2013

Change the Weather History Date:

Monday, December 16, 2013

  Actual Average (KDSM) Record (KDSM)
Temperature  
Mean Temperature 19 °F 25 °F  
Max Temperature 28 °F 33 °F 62 °F (1939)
Min Temperature 10 °F 18 °F -15 °F (1932)
Degree Days  
Heating Degree Days 46 40  
Month to date heating degree days 593  
Since 1 July heating degree days 1851  
Cooling Degree Days 0 0  
Month to date cooling degree days 0  
Year to date cooling degree days 1066  
Moisture  
Dew Point 16 °F    
Average Humidity 84    
Maximum Humidity 93    
Minimum Humidity 79    
Precipitation  
Precipitation 0.00 in 0.04 in 0.63 in (1921)
Month to date precipitation 0.81  
Year to date precipitation 35.41  
Snow  
Snow 0.00 in 0.30 in 4.30 in (1904)
Month to date snowfall 4.7  
Since 1 July snowfall 7.6  
Snow Depth -    
Sea Level Pressure  
Sea Level Pressure 30.05 in    
Wind  
Wind Speed 6 mph (SSW)    
Max Wind Speed 10 mph    
Max Gust Speed -    
Visibility 8 miles    
Events Snow    
T = Trace of Precipitation, MM = Missing Value Source: NWS Daily Summary

Daily Weather History Graph

Daily Weather History Graph

Search for Another Location

Airport or City:

Trip Planner

Search our weather history database for the weather conditions in past years. The results will help you decide how hot, cold, wet, or windy it might be!

Date:

Astronomy

Dec. 16, 2013 Rise Set
Actual Time 7:35 AM CST 4:45 PM CST
Civil Twilight 7:03 AM CST 5:16 PM CST
Nautical Twilight 6:28 AM CST 5:51 PM CST
Astronomical Twilight 5:54 AM CST 6:25 PM CST
Moon 4:36 PM CST (12/16) 6:43 AM CST (12/16)
Length of Visible Light 10h 12m
Length of Day
9h 09m
Full, 100% of the Moon is Illuminated
Dec 16
Full
Dec 17
Full
Dec 25
Last Quarter
Jan 1
New
Jan 7
First Quarter

Hourly Weather History & Observations

Time (CST) Temp. Windchill Dew Point Humidity Pressure Visibility Wind Dir Wind Speed Gust Speed Precip Events Conditions
12:15 AM 12.2 °F 4.3 °F 6.8 °F 79% 30.06 in 10.0 mi ENE 4.6 mph - N/A   Clear
12:35 AM 10.4 °F 2.2 °F 6.8 °F 85% 30.06 in 10.0 mi ENE 4.6 mph - N/A   Partly Cloudy
12:55 AM 10.4 °F 2.2 °F 6.8 °F 85% 30.06 in 10.0 mi ENE 4.6 mph - N/A   Mostly Cloudy
1:15 AM 10.4 °F 2.2 °F 6.8 °F 85% 30.06 in 10.0 mi East 4.6 mph - N/A   Overcast
1:35 AM 10.4 °F 2.2 °F 6.8 °F 85% 30.06 in 10.0 mi ENE 4.6 mph - N/A   Overcast
1:55 AM 12.2 °F 1.7 °F 6.8 °F 79% 30.05 in 10.0 mi East 6.9 mph - N/A   Overcast
2:15 AM 12.2 °F 2.9 °F 8.6 °F 85% 30.06 in 10.0 mi East 5.8 mph - N/A   Overcast
2:35 AM 12.2 °F 1.7 °F 8.6 °F 85% 30.06 in 10.0 mi Variable 6.9 mph - N/A   Overcast
2:55 AM 12.2 °F 1.7 °F 8.6 °F 85% 30.07 in 10.0 mi ESE 6.9 mph - N/A   Overcast
3:15 AM 14.0 °F 2.9 °F 8.6 °F 79% 30.07 in - ESE 8.1 mph - N/A   Overcast
3:35 AM 14.0 °F 3.9 °F 8.6 °F 79% 30.06 in 10.0 mi East 6.9 mph - N/A   Overcast
4:15 AM 14.0 °F 6.5 °F 8.6 °F 79% 30.05 in 10.0 mi East 4.6 mph - N/A   Overcast
4:35 AM 14.0 °F - 8.6 °F 79% 30.06 in 10.0 mi Calm Calm - N/A   Overcast
4:55 AM 14.0 °F 3.9 °F 8.6 °F 79% 30.05 in 10.0 mi East 6.9 mph - N/A   Overcast
5:15 AM 14.0 °F 2.9 °F 8.6 °F 79% 30.05 in 10.0 mi ESE 8.1 mph - N/A   Overcast
5:35 AM 14.0 °F 5.1 °F 10.4 °F 86% 30.05 in 10.0 mi ESE 5.8 mph - N/A   Overcast
5:55 AM 14.0 °F 8.2 °F 10.4 °F 86% 30.05 in 10.0 mi SE 3.5 mph - N/A   Overcast
6:15 AM 14.0 °F 5.1 °F 10.4 °F 86% 30.04 in 10.0 mi SE 5.8 mph - N/A   Overcast
6:35 AM 14.0 °F 6.5 °F 10.4 °F 86% 30.05 in 10.0 mi SE 4.6 mph - N/A   Overcast
6:55 AM 14.0 °F 2.0 °F 10.4 °F 86% 30.03 in 10.0 mi SE 9.2 mph - N/A   Overcast
7:15 AM 15.8 °F 5.1 °F 10.4 °F 79% 30.02 in 10.0 mi SSE 8.1 mph - N/A   Overcast
7:35 AM 15.8 °F 6.1 °F 10.4 °F 79% 30.03 in 9.0 mi SSE 6.9 mph - N/A   Overcast
7:55 AM 15.8 °F 6.1 °F 12.2 °F 86% 30.03 in 8.0 mi SSE 6.9 mph - N/A   Overcast
8:15 AM 15.8 °F 6.1 °F 12.2 °F 86% 30.03 in 8.0 mi SSE 6.9 mph - N/A   Overcast
8:35 AM 15.8 °F 6.1 °F 12.2 °F 86% 30.04 in 8.0 mi SSE 6.9 mph - N/A   Overcast
8:55 AM 17.6 °F 8.2 °F 14.0 °F 86% 30.04 in 8.0 mi SSE 6.9 mph - N/A   Overcast
9:15 AM 17.6 °F 8.2 °F 14.0 °F 86% 30.04 in 7.0 mi SSE 6.9 mph - N/A   Overcast
9:35 AM 17.6 °F 7.3 °F 14.0 °F 86% 30.04 in 6.0 mi SSE 8.1 mph - N/A   Overcast
9:55 AM 17.6 °F 7.3 °F 15.8 °F 93% 30.03 in 5.0 mi SSE 8.1 mph - N/A   Overcast
10:15 AM 19.4 °F 9.5 °F 15.8 °F 86% 30.03 in 1.0 mi SE 8.1 mph - N/A Snow Light Snow
10:35 AM 19.4 °F 7.9 °F 17.6 °F 93% 30.03 in 1.2 mi SSE 10.4 mph - N/A   Overcast
10:55 AM 19.4 °F 7.9 °F 17.6 °F 93% 30.02 in 3.0 mi South 10.4 mph - N/A   Overcast
11:15 AM 21.2 °F 10.1 °F 17.6 °F 86% 30.01 in 4.0 mi SSW 10.4 mph - N/A   Overcast
11:35 AM 21.2 °F 11.7 °F 17.6 °F 86% 30.01 in 3.0 mi South 8.1 mph - N/A   Overcast
11:55 AM 21.2 °F 12.6 °F 17.6 °F 86% 30.01 in 3.0 mi South 6.9 mph - N/A   Overcast
12:15 PM 21.2 °F 13.6 °F 17.6 °F 86% 30.00 in 3.0 mi South 5.8 mph - N/A   Overcast
12:35 PM 21.2 °F 10.9 °F 19.4 °F 93% 29.99 in 3.0 mi SSW 9.2 mph - N/A   Overcast
12:55 PM 21.2 °F 12.6 °F 19.4 °F 93% 29.99 in 3.0 mi SSW 6.9 mph - N/A   Overcast
1:15 PM 23.0 °F 13.9 °F 19.4 °F 86% 29.99 in 3.0 mi SW 8.1 mph - N/A   Overcast
1:35 PM 23.0 °F 15.8 °F 19.4 °F 86% 29.98 in 3.0 mi Variable 5.8 mph - N/A   Overcast
1:55 PM 23.0 °F 13.9 °F 21.2 °F 93% 29.98 in 4.0 mi SW 8.1 mph - N/A   Overcast
2:15 PM 24.8 °F 16.9 °F 21.2 °F 86% 29.98 in 4.0 mi WSW 6.9 mph - N/A   Overcast
2:35 PM 24.8 °F 15.3 °F 21.2 °F 86% 30.00 in 4.0 mi WNW 9.2 mph - N/A   Overcast
2:55 PM 26.6 °F 18.2 °F 23.0 °F 86% 30.01 in 4.0 mi WNW 8.1 mph - N/A   Overcast
3:15 PM 26.6 °F 19.1 °F 23.0 °F 86% 30.02 in 5.0 mi NW 6.9 mph - N/A   Haze
3:35 PM 26.6 °F 18.2 °F 23.0 °F 86% 30.03 in 5.0 mi NW 8.1 mph - N/A   Haze
3:55 PM 28.4 °F 20.4 °F 23.0 °F 80% 30.04 in 5.0 mi WNW 8.1 mph - N/A   Haze
4:15 PM 28.4 °F 20.4 °F 23.0 °F 80% 30.05 in 5.0 mi NW 8.1 mph - N/A   Haze
4:35 PM 26.6 °F 19.1 °F 23.0 °F 86% 30.06 in 5.0 mi WNW 6.9 mph - N/A   Haze
4:55 PM 26.6 °F 19.1 °F 23.0 °F 86% 30.05 in 5.0 mi NW 6.9 mph - N/A   Haze
5:15 PM 26.6 °F 19.1 °F 21.2 °F 80% 30.06 in 7.0 mi NW 6.9 mph - N/A   Clear
5:35 PM 26.6 °F 18.2 °F 21.2 °F 80% 30.07 in 10.0 mi NW 8.1 mph - N/A   Clear
5:55 PM 24.8 °F 16.9 °F 19.4 °F 80% 30.07 in 10.0 mi NW 6.9 mph - N/A   Clear
6:15 PM 24.8 °F 15.3 °F 19.4 °F 80% 30.08 in 10.0 mi NW 9.2 mph - N/A   Partly Cloudy
6:35 PM 24.8 °F 16.1 °F 19.4 °F 80% 30.08 in 10.0 mi NW 8.1 mph - N/A   Mostly Cloudy
6:55 PM 24.8 °F 15.3 °F 19.4 °F 80% 30.09 in 10.0 mi NW 9.2 mph - N/A   Overcast
7:15 PM 24.8 °F 15.3 °F 19.4 °F 80% 30.10 in 10.0 mi NW 9.2 mph - N/A   Overcast
7:35 PM 24.8 °F 15.3 °F 19.4 °F 80% 30.10 in 10.0 mi NW 9.2 mph - N/A   Overcast
7:55 PM 24.8 °F 15.3 °F 19.4 °F 80% 30.10 in 10.0 mi NW 9.2 mph - N/A   Mostly Cloudy
8:15 PM 24.8 °F 16.1 °F 19.4 °F 80% 30.10 in 10.0 mi NW 8.1 mph - N/A   Mostly Cloudy
8:35 PM 24.8 °F 15.3 °F 19.4 °F 80% 30.10 in 10.0 mi WNW 9.2 mph - N/A   Overcast
8:55 PM 24.8 °F 16.1 °F 19.4 °F 80% 30.10 in 10.0 mi WNW 8.1 mph - N/A   Overcast
9:15 PM 24.8 °F 16.9 °F 19.4 °F 80% 30.10 in 10.0 mi WNW 6.9 mph - N/A   Overcast
9:35 PM 24.8 °F 19.1 °F 19.4 °F 80% 30.10 in 10.0 mi WNW 4.6 mph - N/A   Overcast
9:55 PM 26.6 °F 19.1 °F 21.2 °F 80% 30.11 in 10.0 mi WNW 6.9 mph - N/A   Overcast
10:15 PM 26.6 °F 22.6 °F 21.2 °F 80% 30.11 in 10.0 mi Variable 3.5 mph - N/A   Overcast
10:35 PM 26.6 °F - 21.2 °F 80% 30.10 in 10.0 mi Calm Calm - N/A   Overcast
10:55 PM 26.6 °F 21.2 °F 21.2 °F 80% 30.10 in 10.0 mi WNW 4.6 mph - N/A   Overcast
11:15 PM 26.6 °F - 21.2 °F 80% 30.09 in 10.0 mi Calm Calm - N/A   Overcast
11:55 PM 26.6 °F 21.2 °F 21.2 °F 80% 30.10 in 10.0 mi WSW 4.6 mph - N/A   Overcast